Del Bajio, Mexico

5:52 PM CDT on August 18, 2017 (GMT -0500)
De Guanajuato International

Weather History for MMLO - September, 2013

Change the Weather History Date:

Thursday, September 12, 2013

  Actual Average Record
Temperature  
Mean Temperature 70 °F -  
Max Temperature 80 °F 79 °F 86 °F (2000)
Min Temperature 60 °F 58 °F 51 °F (2016)
Cooling Degree Days 5    
Growing Degree Days 20 (Base 50)    
Moisture  
Dew Point 56 °F    
Average Humidity 66    
Maximum Humidity 82    
Minimum Humidity 42    
Precipitation  
Precipitation 0.00 in - - ()
Sea Level Pressure  
Sea Level Pressure 29.98 in    
Wind  
Wind Speed 5 mph ()    
Max Wind Speed 18 mph    
Max Gust Speed 21 mph    
Visibility 9.1 miles    
Events      
Averages and records for this station are not official NWS values.
T = Trace of Precipitation, MM = Missing Value Source: Averaged Metar Reports

Daily Weather History Graph

Daily Weather History Graph

Search for Another Location

Airport or City:

Trip Planner

Search our weather history database for the weather conditions in past years. The results will help you decide how hot, cold, wet, or windy it might be!

Date:

Astronomy

Sep. 12, 2013 Rise Set
Actual Time 7:32 AM CDT 7:51 PM CDT
Civil Twilight 7:10 AM CDT 8:13 PM CDT
Nautical Twilight 6:44 AM CDT 8:39 PM CDT
Astronomical Twilight 6:18 AM CDT 9:05 PM CDT
Moon 2:13 PM CDT (9/12) 12:38 AM CDT (9/12)
Length of Visible Light 13h 03m
Length of Day
12h 18m
Waxing Crescent, 50% of the Moon is Illuminated
Sep 12
Waxing Crescent
Sep 12
First Quarter
Sep 19
Full
Sep 26
Last Quarter
Oct 4
New

Hourly Weather History & Observations

Time (CDT) Temp. Heat Index Dew Point Humidity Pressure Visibility Wind Dir Wind Speed Gust Speed Precip Events Conditions
12:43 AM 66.2 °F - 57.2 °F 73% 29.79 in 8.0 mi East 3.5 mph - N/A   Mostly Cloudy
2:44 AM 62.6 °F - 57.2 °F 82% 30.15 in 8.0 mi Calm Calm - N/A   Mostly Cloudy
3:40 AM 62.6 °F - 57.2 °F 82% 29.70 in 8.0 mi Calm Calm - N/A   Mostly Cloudy
4:44 AM 62.6 °F - 57.2 °F 82% 30.15 in 8.0 mi East 3.5 mph - N/A   Mostly Cloudy
5:41 AM 62.6 °F - 57.2 °F 82% 30.12 in 8.0 mi ENE 5.8 mph - N/A   Mostly Cloudy
6:43 AM 62.6 °F - 57.2 °F 82% 29.73 in 8.0 mi Calm Calm - N/A   Mostly Cloudy
7:43 AM 60.8 °F - 55.4 °F 82% 30.15 in 10.0 mi NE 3.5 mph - N/A   Mostly Cloudy
8:55 AM 64.4 °F - 57.2 °F 77% 30.18 in 10.0 mi Calm Calm - N/A   Mostly Cloudy
9:45 AM 68.0 °F - 57.2 °F 68% 29.80 in 10.0 mi NE 9.2 mph - N/A   Mostly Cloudy
11:42 AM 71.6 °F - 57.2 °F 60% 30.18 in 10.0 mi NE 9.2 mph - N/A   Mostly Cloudy
12:45 PM 73.4 °F - 57.2 °F 57% 29.78 in 10.0 mi East 16.1 mph - N/A   Mostly Cloudy
1:48 PM 75.2 °F - 57.2 °F 53% 30.12 in 10.0 mi NE 9.2 mph 20.7 mph N/A   Mostly Cloudy
2:45 PM 77.0 °F - 57.2 °F 50% 30.09 in 10.0 mi ENE 11.5 mph - N/A   Scattered Clouds
3:45 PM 75.2 °F - 57.2 °F 53% 29.65 in 10.0 mi ENE 13.8 mph - N/A   Scattered Clouds
4:42 PM 80.6 °F 80.5 °F 55.4 °F 42% 30.05 in 10.0 mi East 13.8 mph - N/A   Scattered Clouds
5:45 PM 78.8 °F - 55.4 °F 44% 30.04 in 10.0 mi ENE 17.3 mph - N/A   Scattered Clouds
6:50 PM 75.2 °F - 55.4 °F 50% 29.68 in 10.0 mi NE 18.4 mph - N/A   Scattered Clouds
7:45 PM 71.6 °F - 53.6 °F 53% 30.09 in 10.0 mi East 9.2 mph - N/A   Scattered Clouds
8:42 PM 68.0 °F - 55.4 °F 64% 30.10 in 8.0 mi East 5.8 mph - N/A   Scattered Clouds
9:50 PM 66.2 °F - 55.4 °F 68% 29.74 in 8.0 mi NE 5.8 mph - N/A   Scattered Clouds
10:45 PM 64.4 °F - 55.4 °F 73% 30.11 in 8.0 mi NE 8.1 mph - N/A   Scattered Clouds
11:48 PM 66.2 °F - 55.4 °F 68% 30.12 in 8.0 mi Calm Calm - N/A   Scattered Clouds